| time (UTC) | temp F | wind direction | speed MPH | gust MPH | rain 1hr in | rain 24hr in | rain mn in | humidity % | barometer mb |
| 20260506023107 | 75 | 187 | 4.0 | 8.0 | 0.00 | 0.00 | 0.00 | 80 | 981.3 |
| 20260506021547 | 76 | 194 | 3.0 | 7.0 | 0.00 | 0.00 | 0.00 | 81 | 981.0 |
| 20260506020027 | 76 | 191 | 2.0 | 5.0 | 0.00 | 0.00 | 0.00 | 81 | 981.0 |
| 20260506014529 | 76 | 198 | 3.0 | 8.0 | 0.00 | 0.00 | 0.00 | 81 | 980.8 |
| 20260506013013 | 77 | 192 | 2.0 | 9.0 | 0.00 | 0.00 | 0.00 | 82 | 980.7 |
| 20260506011514 | 78 | 186 | 3.0 | 9.0 | 0.00 | 0.00 | 0.00 | 81 | 980.6 |
| 20260506010007 | 78 | 192 | 3.0 | 9.0 | 0.00 | 0.00 | 0.00 | 81 | 980.6 |
| 20260506004505 | 79 | 190 | 4.0 | 9.0 | 0.00 | 0.00 | 0.00 | 80 | 980.6 |
| 20260506003002 | 80 | 198 | 3.0 | 7.0 | 0.00 | 0.00 | 0.00 | 80 | 980.6 |
| 20260506001600 | 80 | 197 | 4.0 | 8.0 | 0.00 | 0.00 | 0.00 | 79 | 980.7 |
| 20260506000058 | 80 | 208 | 6.0 | 10.0 | 0.00 | 0.00 | 0.00 | 78 | 980.7 |
| 20260505234635 | 81 | 210 | 5.0 | 11.0 | 0.00 | 0.00 | 0.00 | 77 | 980.7 |
| 20260505233039 | 81 | 242 | 7.0 | 11.0 | 0.00 | 0.00 | 0.00 | 76 | 980.5 |
| 20260505231536 | 81 | 196 | 4.0 | 8.0 | 0.00 | 0.00 | 0.00 | 77 | 980.5 |
| 20260505230014 | 81 | 185 | 6.0 | 13.0 | 0.00 | 0.00 | 0.00 | 75 | 980.2 |
| 20260505224512 | 82 | 229 | 6.0 | 11.0 | 0.00 | 0.00 | 0.00 | 75 | 980.3 |
| 20260505223057 | 82 | 185 | 7.0 | 12.0 | 0.00 | 0.00 | 0.00 | 75 | 980.3 |
| 20260505221555 | 81 | 215 | 9.0 | 15.0 | 0.00 | 0.00 | 0.00 | 75 | 980.1 |
| 20260505220051 | 82 | 177 | 8.0 | 15.0 | 0.00 | 0.00 | 0.00 | 74 | 980.3 |
| 20260505214539 | 82 | 225 | 9.0 | 14.0 | 0.00 | 0.00 | 0.00 | 73 | 980.4 |
| 20260505213014 | 83 | 233 | 9.0 | 19.0 | 0.00 | 0.00 | 0.00 | 73 | 980.6 |
| 20260505211511 | 82 | 220 | 10.0 | 19.0 | 0.00 | 0.00 | 0.00 | 73 | 980.8 |
| 20260505210052 | 82 | 244 | 12.0 | 18.0 | 0.00 | 0.00 | 0.00 | 74 | 981.0 |
| 20260505204550 | 82 | 221 | 10.0 | 20.0 | 0.00 | 0.00 | 0.00 | 75 | 981.1 |
| 20260505203031 | 81 | 210 | 11.0 | 19.0 | 0.00 | 0.00 | 0.00 | 76 | 981.3 |
| 20260505201531 | 81 | 206 | 11.0 | 17.0 | 0.00 | 0.00 | 0.00 | 76 | 981.6 |
| 20260505200012 | 81 | 230 | 8.0 | 19.0 | 0.00 | 0.00 | 0.00 | 77 | 981.6 |
| 20260505194527 | 80 | 196 | 10.0 | 16.0 | 0.00 | 0.00 | 0.00 | 76 | 981.8 |
| 20260505193055 | 80 | 219 | 9.0 | 17.0 | 0.00 | 0.00 | 0.00 | 76 | 982.0 |
| 20260505191556 | 80 | 206 | 10.0 | 17.0 | 0.00 | 0.00 | 0.00 | 76 | 982.0 |
| 20260505190030 | 79 | 247 | 10.0 | 16.0 | 0.00 | 0.00 | 0.00 | 77 | 982.1 |
| 20260505184529 | 79 | 251 | 10.0 | 17.0 | 0.00 | 0.00 | 0.00 | 79 | 982.4 |
| 20260505183013 | 78 | 249 | 10.0 | 18.0 | 0.00 | 0.00 | 0.00 | 78 | 982.6 |
| 20260505181510 | 77 | 232 | 10.0 | 16.0 | 0.00 | 0.00 | 0.00 | 80 | 982.9 |
| 20260505180058 | 76 | 248 | 9.0 | 16.0 | 0.00 | 0.00 | 0.00 | 81 | 983.0 |
| 20260505174609 | 76 | 241 | 10.0 | 18.0 | 0.00 | 0.00 | 0.00 | 81 | 983.1 |
| 20260505173034 | 75 | 227 | 10.0 | 17.0 | 0.00 | 0.00 | 0.00 | 81 | 983.1 |
| 20260505171535 | 75 | 237 | 9.0 | 13.0 | 0.00 | 0.00 | 0.00 | 81 | 983.3 |
| 20260505170023 | 74 | 242 | 11.0 | 16.0 | 0.00 | 0.00 | 0.00 | 82 | 983.3 |
| 20260505164518 | 73 | 257 | 9.0 | 17.0 | 0.00 | 0.00 | 0.00 | 82 | 983.3 |
| 20260505163056 | 73 | 241 | 11.0 | 15.0 | 0.00 | 0.00 | 0.00 | 81 | 983.3 |
| 20260505161603 | 73 | 244 | 11.0 | 17.0 | 0.00 | 0.00 | 0.00 | 81 | 983.4 |
| 20260505153023 | 73 | 250 | 14.0 | 23.0 | 0.00 | 0.00 | 0.00 | 81 | 983.2 |
| 20260505151519 | 72 | 244 | 12.0 | 18.0 | 0.00 | 0.00 | 0.00 | 80 | 983.1 |
| 20260505124547 | 70 | 232 | 8.0 | 15.0 | 0.00 | 0.00 | 0.00 | 78 | 982.3 |
| 20260505123105 | 70 | 226 | 8.0 | 14.0 | 0.00 | 0.00 | 0.00 | 79 | 982.0 |
| 20260505121528 | 70 | 247 | 6.0 | 11.0 | 0.00 | 0.00 | 0.00 | 79 | 981.7 |
| 20260505120030 | 69 | 244 | 7.0 | 15.0 | 0.00 | 0.00 | 0.00 | 79 | 981.6 |
| 20260505114510 | 69 | 224 | 7.0 | 15.0 | 0.00 | 0.00 | 0.00 | 79 | 981.5 |
| 20260505113009 | 69 | 229 | 8.0 | 14.0 | 0.00 | 0.00 | 0.00 | 79 | 981.5 |
| 20260505111604 | 69 | 217 | 9.0 | 19.0 | 0.00 | 0.00 | 0.00 | 80 | 981.4 |
| 20260505101510 | 69 | 225 | 8.0 | 14.0 | 0.00 | 0.00 | 0.00 | 81 | 981.5 |
| 20260505100009 | 69 | 219 | 8.0 | 18.0 | 0.00 | 0.00 | 0.00 | 81 | 981.7 |
| 20260505094551 | 70 | 237 | 8.0 | 15.0 | 0.00 | 0.00 | 0.00 | 80 | 981.8 |
| 20260505093050 | 70 | 213 | 8.0 | 17.0 | 0.00 | 0.00 | 0.00 | 80 | 981.8 |
| 20260505091534 | 70 | 232 | 9.0 | 17.0 | 0.00 | 0.00 | 0.00 | 80 | 982.0 |
| 20260505090034 | 70 | 240 | 11.0 | 20.0 | 0.00 | 0.00 | 0.00 | 80 | 982.1 |
| 20260505084517 | 70 | 215 | 9.0 | 16.0 | 0.00 | 0.00 | 0.00 | 80 | 982.1 |
| 20260505083013 | 70 | 204 | 12.0 | 20.0 | 0.00 | 0.00 | 0.00 | 80 | 982.2 |
| 20260505081553 | 70 | 248 | 13.0 | 18.0 | 0.00 | 0.00 | 0.00 | 81 | 982.5 |
| 20260505080045 | 70 | 240 | 10.0 | 18.0 | 0.00 | 0.00 | 0.00 | 81 | 982.4 |
| 20260505074526 | 70 | 241 | 10.0 | 19.0 | 0.00 | 0.00 | 0.00 | 81 | 982.6 |
| 20260505073023 | 70 | 249 | 8.0 | 23.0 | 0.00 | 0.00 | 0.00 | 81 | 982.7 |
| 20260505071503 | 70 | 188 | 10.0 | 19.0 | 0.00 | 0.00 | 0.00 | 81 | 982.9 |
| 20260505070002 | 70 | 223 | 11.0 | 24.0 | 0.00 | 0.00 | 0.00 | 80 | 983.0 |
| 20260505064555 | 69 | 216 | 11.0 | 19.0 | 0.00 | 0.00 | 0.00 | 80 | 983.0 |
| 20260505063043 | 69 | 224 | 11.0 | 15.0 | 0.00 | 0.00 | 0.00 | 80 | 983.2 |
| 20260505061529 | 69 | 218 | 8.0 | 17.0 | 0.00 | 0.00 | 0.00 | 81 | 983.5 |
| 20260505060021 | 69 | 222 | 11.0 | 19.0 | 0.00 | 0.00 | 0.00 | 80 | 983.5 |
| 20260505054605 | 69 | 237 | 9.0 | 19.0 | 0.00 | 0.00 | 0.00 | 80 | 983.5 |
| 20260505053110 | 69 | 213 | 10.0 | 15.0 | 0.00 | 0.00 | 0.00 | 80 | 983.4 |
| 20260505051537 | 69 | 223 | 8.0 | 13.0 | 0.00 | 0.00 | 0.00 | 81 | 983.4 |
| 20260505041611 | 71 | 217 | 7.0 | 11.0 | 0.00 | 0.00 | 0.00 | 82 | 983.4 |
| 20260505040049 | 71 | 211 | 8.0 | 14.0 | 0.00 | 0.00 | 0.00 | 82 | 983.6 |
| 20260505034534 | 71 | 213 | 7.0 | 11.0 | 0.00 | 0.00 | 0.00 | 82 | 983.6 |
| 20260505033031 | 71 | 196 | 7.0 | 14.0 | 0.00 | 0.00 | 0.00 | 82 | 983.5 |
| 20260505031509 | 72 | 198 | 7.0 | 11.0 | 0.00 | 0.00 | 0.00 | 81 | 983.4 |
| 20260505030009 | 72 | 196 | 7.0 | 12.0 | 0.00 | 0.00 | 0.00 | 81 | 983.4 |
| 20260505024549 | 72 | 207 | 7.0 | 17.0 | 0.00 | 0.00 | 0.00 | 81 | 983.4 |